Retour au catalogue

FREGAT DEB

LostUNKNOWN
NORAD 46409·DEBRIS·🇷🇺 Russia

Lancé Jul 18, 2011 depuis Baikonur Cosmodrome

Loading…

Prochains Passages (prochaines 24 heures)

TLE

PériméSource: Space-Track

Époque: Oct 7, 2020, 01:48 UTC

1 46409U 11037LQ  20281.07543435  .00010409  00000-0  23290+0 0  9998
2 46409  51.2450 167.1448 1514867 171.3218 191.7203  9.99438614  4165

Suivez FREGAT DEB en temps réel avec AllMySat

Download on the App Store